Погода в Лосе Кристьяносе

Испания     28°03′03″N   16°43′08″W
темп.,
°C
ветер,
м/с
пор.,
м/с
влажн.,
%
обл.,
%
осадки,
мм/ч
давл.,
гПа
погр.,
м
16 июня, ср
ср1601:00+20сз33828 0.0 1019246
04:00+20ссз228114 0.0 1018355
07:00+20сз127915 0.0 1018298
10:00+20з117814 0.0 1018355
13:00+21сз658015 0.0 1019332
16:00+21сз877915 0.0 1018391
19:00+21сз548116 0.0 1018335
22:00+21сз32839 0.0 1019270
17 июня, чт
чт1701:00+21сз32825 0.0 1019203
04:00+20ююв23838 0.0 1018342
07:00+20ююз118133 0.0 1018310
10:00+21ююз22775 0.0 1019334
13:00+21ююв347715 0.0 1020431
16:00+21юв337524 0.0 1019409
19:00+21з137717 0.0 1019437
22:00+21всв23812 0.0 1020275
18 июня, пт
пт1801:00+21сз55813 0.0 1020191
04:00+21сз55822 0.0 1018264
07:00+20вюв66826 0.0 1018375
10:00+21вюв547648 0.1 1019499
13:00+21вюв877284 0.1 1020692
16:00+21юв766774 0.0 1019693
19:00+21вюв656734 0.0 1019469
22:00+20ююв336582 0.0 1020639
19 июня, сб
сб1901:00+20вюв226557 0.0 1021854
04:00+20вюв326556 0.0 1020706
07:00+19ю226637 0.0 1020735
10:00+20ююв546476 0.0 1021769
13:00+21вюв556653 0.0 1022712
16:00+21вюв446720 0.0 1021549
19:00+21юв876537 0.0 1020497
22:00+20юв65649 0.0 1022584
20 июня, вс
вс2001:00+20з136923 0.0 1022588
04:00+19ю337016 0.0 1020455
07:00+20вюв33685 0.0 1020515
10:00+20ююз33713 0.0 1021642
13:00+20ююв55705 0.0 1022558
16:00+21юв44740 0.0 1020479
19:00+21ююв22732 0.0 1020463
22:00+21ююв238161 0.0 1020321